Flag for U.S.A. Weather past 2 weeks in Victorville, California, U.S.A.

Now
79 °F

Clear.


Feels Like: 78 °F
Forecast: 68 / 99 °F
Wind: 3 mph from Southwest

Location: George Air Force Base / Victorvi

Current Time: Jul 25, 2014 at 4:18:49 AM

Latest Report: Jul 25, 2014 at 3:55 AM


Visibility: 10 mi

Pressure: 29.93 "Hg

Humidity: 21%

Dew point: 36 °F

Location of VictorvilleLocation

Historic Weather in Victorville — Graph

°F

Victorville temperature yesterday

Maximum temperature yesterday: 106 °F (at 3:15 PM)
Minimum temperature yesterday: 64 °F (at 5:55 AM)
Average temperature yesterday: 87 °F

Past Weeks' High & Low Weather Summary

 TemperatureHumidityPressure
High106 °F (Jul 13, 3:15 PM)72% (Jul 21, 5:55 AM)30.13 "Hg (Jul 21, 5:55 AM)
Low59 °F (Jul 18, 3:55 AM)7% (Jul 23, 4:15 PM)29.84 "Hg (Jul 24, 5:55 PM)
Average82 °F30%30.01 "Hg
* Reported Jul 10 3:15 AM — Jul 25 3:15 AM, Victorville, Weather by CustomWeather, © 2014

Note: Actual official high and low records may vary slightly from our data, if they occured in-between our weather recording intervals... More about our weather records

Advertising

Victorville weather history for previous 24 hours

 ConditionsComfort  
Time TempWeatherWind HumidityBarometerVisibility
3:15 AM
Jul 25
77 °FClear.6 mph24%29.92 "Hg10 mi
2:55 AM79 °FClear.8 mph21%29.92 "Hg10 mi
2:35 AM81 °FClear.10 mph20%29.93 "Hg10 mi
2:15 AM77 °FClear.6 mph22%29.93 "Hg10 mi
1:55 AM79 °FClear.5 mph21%29.93 "Hg10 mi
1:35 AM79 °FClear.5 mph20%29.93 "Hg10 mi
1:15 AM81 °FClear.5 mph16%29.93 "Hg10 mi
12:55 AM82 °FClear.8 mph15%29.94 "Hg10 mi
12:35 AM81 °FClear.5 mph21%29.94 "Hg10 mi
12:15 AM81 °FClear.8 mph21%29.94 "Hg10 mi
11:55 PM
Jul 24
82 °FClear.7 mph19%29.93 "Hg10 mi
11:15 PM84 °FClear.12 mph16%29.93 "Hg10 mi
10:55 PM84 °FClear.3 mph15%29.93 "Hg10 mi
10:35 PM86 °FClear.5 mph13%29.93 "Hg10 mi
10:15 PM88 °FClear.No wind10%29.93 "Hg10 mi
9:55 PM90 °FClear.5 mph12%29.93 "Hg10 mi
9:35 PM90 °FClear.6 mph11%29.92 "Hg10 mi
9:15 PM91 °FClear.8 mph10%29.91 "Hg10 mi
8:55 PM93 °FSunny.7 mph10%29.91 "Hg10 mi
8:35 PM93 °FSunny.7 mph11%29.90 "Hg10 mi
8:15 PM95 °FSunny.5 mph11%29.89 "Hg10 mi
7:55 PM97 °FSunny.7 mph10%29.88 "Hg10 mi
7:35 PM99 °FSunny.8 mph8%29.88 "Hg10 mi
7:15 PM100 °FSunny.8 mph10%29.87 "Hg10 mi
6:55 PM100 °FSunny.15 mph10%29.86 "Hg10 mi
6:35 PM102 °FSunny.24 mph9%29.84 "Hg10 mi
6:15 PM102 °FSunny.17 mph8%29.84 "Hg10 mi
5:55 PM102 °FSunny.18 mph8%29.84 "Hg10 mi
5:15 PM104 °FSunny.21 mph7%29.85 "Hg10 mi
4:55 PM106 °FSunny.21 mph8%29.85 "Hg10 mi
4:35 PM106 °FSunny.18 mph7%29.86 "Hg10 mi
4:15 PM106 °FSunny.15 mph7%29.86 "Hg10 mi
3:55 PM106 °FScattered clouds.15 mph7%29.87 "Hg10 mi
3:35 PM104 °FScattered clouds.5 mph8%29.88 "Hg10 mi
3:15 PM106 °FScattered clouds.5 mph8%29.89 "Hg10 mi
2:55 PM104 °FScattered clouds.3 mph9%29.90 "Hg10 mi
2:35 PM102 °FScattered clouds.5 mph9%29.91 "Hg10 mi
1:55 PM102 °FScattered clouds.6 mph9%29.93 "Hg10 mi
1:35 PM100 °FScattered clouds.No wind10%29.94 "Hg10 mi
1:15 PM99 °FScattered clouds.5 mph10%29.94 "Hg10 mi
12:55 PM99 °FScattered clouds.3 mph10%29.95 "Hg10 mi
12:15 PM95 °FScattered clouds.No wind12%29.96 "Hg10 mi
11:55 AM95 °FScattered clouds.6 mph12%29.97 "Hg10 mi
11:15 AM90 °FSunny.No wind15%29.98 "Hg10 mi
10:55 AM90 °FSunny.No wind15%29.99 "Hg10 mi
10:35 AM90 °FSunny.3 mph16%29.99 "Hg10 mi
10:15 AM86 °FSunny.No wind22%30.00 "Hg10 mi
9:55 AM84 °FSunny.No wind25%30.00 "Hg10 mi
9:15 AM81 °FSunny.No wind28%30.01 "Hg10 mi
8:55 AM79 °FSunny.3 mph32%30.02 "Hg10 mi
8:15 AM73 °FSunny.5 mph41%30.02 "Hg7 mi
7:55 AM73 °FSunny.6 mph44%30.02 "Hg10 mi
7:15 AM70 °FSunny.5 mph46%30.01 "Hg10 mi
6:35 AM66 °FClear.6 mph37%30.01 "Hg10 mi
6:15 AM64 °FClear.5 mph40%30.01 "Hg10 mi
5:55 AM64 °FClear.6 mph40%30.00 "Hg10 mi
5:35 AM66 °FClear.6 mph43%30.00 "Hg7 mi
5:15 AM66 °FClear.6 mph43%29.99 "Hg10 mi
4:55 AM66 °FClear.5 mph43%29.99 "Hg10 mi
4:15 AM70 °FClear.5 mph40%29.99 "Hg10 mi
Weather by CustomWeather, © 2014

See weather overviewHow to use our weather pages